Vertical_Velocity
2 -1 -2 1 -0 1 -3 1 -3 9 -7 11 -5 12 5 5 3 -1 1 4 5 3
-7 -2 -5 1 6 -6 -6 -3 -11 3 5 3 6 9 4 -0 2 -0 2 9 5 9
-3 2 -5 5 1 -1 -3 2 -2 -18 14 13 -2 12 4 10 -1 2 2 -1 6 6
-0 -2 3 1 0 -8 -2 4 19 -8 -4 5 4 18 -1 6 -2 4 2 3 -0 4
-0 0 -2 -3 -2 -1 2 1 2 -4 6 -0 6 9 14 2 4 -1 -0 3 4 4
1 -1 -1 -4 -5 -0 3 -2 -2 1 -1 2 -7 4 14 9 8 1 7 -3 2 -1
0 -1 -0 -1 -2 -1 -3 -7 -9 -4 4 -12 4 9 -3 4 6 2 -1 6 2 4
-1 1 -0 1 2 4 -2 8 2 1 -1 -12 2 8 5 16 11 0 -1 7 -1 -3
-0 2 1 -2 -2 -0 1 6 1 -2 2 -2 1 7 1 -7 15 16 -3 -4 2 16
-1 -0 -1 1 4 -9 -5 -3 5 6 -5 -1 -3 3 2 1 16 3 -1 15 4 2
-3 -2 -5 4 -1 -3 -1 -4 -5 1 7 2 3 -3 -1 1 1 -21 28 1 0 7
-3 -5 -2 1 -3 -5 2 -1 1 8 1 4 -5 2 13 7 1 3 1 16 8 -3
-3 1 -1 1 -7 1 2 2 4 -1 6 5 1 5 8 6 -7 6 9 -5 16 5
-2 -3 -3 -2 -2 -6 -3 4 5 -1 6 9 0 -1 10 3 0 5 4 6 -11 4
Height
1474 1467 1462 1457 1450 1442 1437 1434 1430 1429 1433 1432 1439 1447 1450 1453 1456 1459 1463 1469 1473 1478
1472 1467 1460 1455 1447 1441 1436 1433 1426 1425 1422 1426 1429 1436 1442 1445 1447 1453 1459 1463 1469 1472
1469 1462 1455 1449 1441 1435 1433 1427 1422 1424 1416 1411 1420 1427 1432 1436 1440 1445 1451 1458 1463 1468
1465 1457 1451 1441 1435 1432 1429 1422 1415 1408 1413 1410 1411 1417 1422 1429 1432 1437 1444 1450 1455 1462
1460 1454 1448 1441 1435 1427 1421 1417 1413 1411 1405 1400 1402 1405 1415 1419 1424 1430 1435 1443 1449 1455
1459 1453 1447 1441 1434 1429 1420 1414 1408 1403 1399 1393 1394 1400 1407 1410 1416 1421 1428 1435 1442 1449
1457 1451 1445 1439 1432 1424 1415 1408 1404 1402 1394 1391 1391 1391 1397 1404 1408 1415 1420 1426 1434 1442
1455 1449 1442 1435 1430 1424 1416 1409 1404 1395 1391 1393 1389 1386 1392 1395 1399 1407 1414 1420 1427 1435
1452 1445 1438 1431 1424 1415 1408 1403 1397 1391 1388 1386 1382 1381 1381 1388 1395 1398 1406 1414 1420 1428
1450 1444 1436 1430 1424 1418 1410 1402 1396 1391 1386 1384 1379 1374 1378 1384 1384 1392 1401 1407 1412 1420
1450 1443 1438 1432 1423 1417 1409 1400 1391 1391 1386 1380 1377 1376 1378 1378 1376 1391 1397 1399 1407 1416
1450 1444 1439 1430 1423 1418 1410 1402 1400 1387 1382 1375 1372 1373 1373 1373 1376 1385 1390 1395 1399 1408
1449 1443 1437 1429 1423 1418 1409 1403 1397 1391 1387 1383 1378 1376 1377 1373 1378 1382 1383 1384 1394 1400
1449 1444 1439 1432 1430 1427 1420 1412 1400 1395 1389 1386 1381 1378 1379 1377 1378 1376 1379 1382 1386 1397